Weather in Vetlyanka

Russia / Astrakhan Oblast     47°38′12″N   46°37′42″E
temp.,
°C
wind,
m/s
gust,
m/s
humid.,
%
clouds,
%
prec.,
mm/h
press.,
hPa
HPBL,
m
1 august, sun
sun101:00+27ese33205 0.0 101114
04:00+24sse33395 0.0 101129
07:00+25sse23460 0.0 101289
10:00+31ese22290 0.0 1012725
13:00+35se44230 0.0 10112299
16:00+36sse43220 0.0 10102242
19:00+35se23255 0.0 10101529
22:00+29ene22354 0.0 101011
2 august, mon
mon201:00+30ssw4737100 0.1 1011155
04:00+27ssw334476 0.1 101143
07:00+28ssw224461 0.2 101265
10:00+34s342268 0.2 1012725
13:00+37sse561524 0.0 10121936
16:00+38s471312 0.0 10103059
19:00+37se341417 0.0 1010234
22:00+31se331984 0.0 101022
3 august, tue
tue301:00+29s452354 0.0 101055
04:00+26wsw22285 0.0 101111
07:00+28s33260 0.0 101251
10:00+36sse33165 0.0 1011767
13:00+40ssw5695 0.0 10113821
16:00+40s4591 0.0 10094323
19:00+39sse341165 0.0 1009132
22:00+31sse44160 0.0 100937
4 august, wed
wed401:00+29ssw44170 0.0 100933
04:00+27sw34211 0.0 100930
07:00+28ssw35246 0.0 1010101
10:00+36sw451476 0.0 1010767
13:00+39wsw6614100 0.0 10092995
16:00+34w6725100 0.2 1010369
19:00+34nnw46255 0.1 1010220
22:00+29nnw5113511 0.1 1011236
5 august, thu
thu501:00+27nnw4943100 0.0 1012208
04:00+25nnw4552100 0.3 101286
07:00+26nnw4753100 0.0 1013258
10:00+26n2254100 0.8 1015498
13:00+31n5537100 0.0 10141642
16:00+33n55250 0.0 10132917
19:00+32n65230 0.0 10132543
22:00+27n452978 0.0 101454